Tracking 19246 objects as of 21-Sep-2018
HD Live streaming from Space Station
objects crossing your sky now

FENGYUN 1C DEB

Track FENGYUN 1C DEB now!
10-day predictions


NORAD ID: 31880
Int'l Code: 1999-025CKF
Perigee: 854.8 km
Apogee: 1,051.9 km
Inclination: 100.0 °
Period: 104.0 minutes
Semi major axis: 7324 km
RCS: 0.0108 m2 (small)
Launch date: May 10, 1999
Source: People's Republic of China (PRC)
Launch site: Taiyaun Space Center, China (TSC)

Note: This is SATELLITE DEBRIS
aabbcc
Your satellite tracking list
Your tracking list is empty




NASA's NSSDC Master Catalog

Two Line Element Set (TLE):
1 31880U 99025CKF 18259.63780714 +.00000216 +00000-0 +21933-3 0  9996
2 31880 099.9672 205.2973 0134510 223.9830 135.0557 13.84995442263414
Source of the keplerian elements: AFSPC